Tracking 19717 objects as of 24-Jun-2019
HD Live streaming from Space Station
objects crossing your sky now

SCOUT B DEB


SCOUT B DEB is no longer on orbit


NORAD ID: 2208
Int'l Code: 1966-034C
Perigee: N/A
Apogee: N/A
Inclination: N/A
Period: N/A
Semi major axis: N/A
RCS: N/A
Launch date: April 22, 1966
Source: United States (US)
Launch site: AIR FORCE WESTERN TEST RANGE (AFWTR)
Decay date: 2012-01-09

Note: This is SATELLITE DEBRIS
aabbcc
Your satellite tracking list
Your tracking list is empty




NASA's NSSDC Master Catalog

Two Line Element Set (TLE):
1 02208U 66034C   12009.24959034  .34746035 -10490-5  16714-2 0  9992
2 02208 082.1715 345.4817 0023465 067.5464 292.8305 16.40104065174392
Source of the keplerian elements: AFSPC